CDT,Max TemperatureF,Mean TemperatureF,Min TemperatureF,Max Dew PointF,MeanDew PointF,Min DewpointF,Max Humidity, Mean Humidity, Min Humidity, Max Sea Level PressureIn, Mean Sea Level PressureIn, Min Sea Level PressureIn, Max VisibilityMiles, Mean VisibilityMiles, Min VisibilityMiles, Max Wind SpeedMPH, Mean Wind SpeedMPH, Max Gust SpeedMPH,PrecipitationIn, CloudCover, Events, WindDirDegrees
2012-10-1,66,52,37,50,40,36,93,75,43,29.95,29.90,29.83,10,9,3,7,0,,0.00,0,,105
2012-10-2,73,56,39,46,41,37,93,74,27,29.93,29.88,29.83,10,9,5,12,2,14,0.00,0,Fog,43
2012-10-3,66,55,44,54,49,43,94,79,52,30.00,29.95,29.92,10,5,0,9,1,,0.00,7,Fog,157
2012-10-4,73,60,44,52,44,32,94,69,41,30.12,30.02,29.94,10,10,7,21,5,32,0.00,1,,239
2012-10-5,51,43,35,32,27,19,81,57,32,30.15,30.10,30.05,10,10,10,17,8,24,0.00,1,,269
2012-10-6,46,40,33,28,26,23,70,57,40,30.18,30.12,30.05,10,10,10,16,9,23,0.00,6,,288
2012-10-7,51,42,33,28,23,12,70,53,22,30.18,30.14,30.09,10,10,10,15,5,22,0.00,5,,296
2012-10-8,62,47,32,28,23,19,65,47,20,30.10,30.03,29.92,10,10,10,31,6,37,0.00,1,,200
2012-10-9,62,52,41,54,35,30,88,59,37,29.91,29.87,29.77,10,10,5,24,13,30,0.00,4,Rain,223
2012-10-10,51,42,33,36,29,21,87,69,30,30.14,30.03,29.89,10,10,10,22,9,28,0.00,1,,275
2012-10-11,66,50,35,39,30,19,81,56,24,30.28,30.09,30.01,10,10,10,26,8,34,0.00,3,Rain,222
2012-10-12,55,45,35,45,24,19,93,50,26,30.45,30.35,30.27,10,10,10,15,8,21,0.00,1,,43
2012-10-13,62,52,42,61,46,32,94,80,57,30.22,29.97,29.74,10,7,1,17,9,23,0.00,8,Rain,171
2012-10-14,64,55,46,61,54,41,94,87,81,29.78,29.64,29.44,10,6,1,22,8,33,0.00,8,Rain,221
2012-10-15,60,50,39,41,37,25,87,72,39,29.93,29.88,29.78,10,10,7,18,7,24,0.00,1,,300
2012-10-16,69,53,37,50,42,34,93,69,40,29.92,29.72,29.46,10,10,10,23,6,32,0.00,1,,155
2012-10-17,69,60,51,55,49,45,94,69,49,29.48,29.40,29.28,10,9,4,22,10,29,0.00,4,Rain,207
2012-10-18,51,46,42,48,41,37,93,82,66,29.42,29.34,29.28,10,10,5,17,11,23,0.00,7,Rain,222
2012-10-19,51,45,39,45,40,36,93,85,62,29.65,29.51,29.40,10,7,2,9,5,,0.03,6,Rain,235
2012-10-20,57,46,35,43,37,34,93,78,41,29.92,29.77,29.65,10,10,10,14,4,,0.00,2,,271
2012-10-21,68,52,35,46,40,32,93,78,43,30.00,29.95,29.92,10,9,7,15,2,21,0.00,0,,138
2012-10-22,60,55,50,57,52,45,94,86,77,29.95,29.92,29.87,10,5,0,7,2,,0.00,5,Fog-Rain-Thunderstorm,68
2012-10-23,71,63,55,64,58,54,94,86,73,29.91,29.88,29.83,10,5,0,13,6,,0.00,8,Fog,119
2012-10-24,77,68,60,63,60,57,94,78,61,29.91,29.85,29.77,10,9,4,17,8,24,0.00,4,,172
2012-10-25,73,57,41,61,52,32,87,76,65,30.08,29.79,29.59,10,10,4,28,14,33,0.00,5,Rain,207
2012-10-26,48,40,32,32,28,23,87,66,37,30.33,30.23,30.03,10,10,10,21,10,24,0.00,2,,321
2012-10-27,46,36,26,28,25,18,93,71,36,30.35,30.32,30.28,10,10,10,14,2,20,0.00,1,,350
2012-10-28,48,39,30,27,24,21,80,62,34,30.33,30.30,30.20,10,10,10,12,5,17,0.00,1,,4
2012-10-29,51,40,28,30,24,16,86,65,24,30.33,30.26,30.12,10,10,10,15,6,21,0.00,0,,341
2012-10-30,48,42,37,28,23,16,70,53,29,30.30,29.97,29.84,10,10,10,23,13,31,0.00,1,,348
2012-10-31,50,40,30,28,22,18,80,61,37,29.87,29.85,29.81,10,10,10,17,11,23,0.00,0,,322